Location: Newark
(36.0797°N, 3.9744°E)
Time: 05:42:19
(UTC+00:00)

Vanguard 2 Rocket - Pass Details

Date: 15 December 2019
Orbit: 554 x 3326 km, 32.9° (Epoch: 17 January)

Event Time Altitude Azimuth Distance (km) Brightness Sun altitude
Rises 17:21:40 0° 256° (WSW) 7,123 13.6 -10.1°
Reaches altitude 10° 17:26:51 10° 255° (WSW) 5,871 12.6 -11.1°
Maximum altitude 17:43:44 75° 174° (S) 2,140 8.7 -14.3°
Enters shadow 17:51:44 18° 93° (E) 3,106 9.0 -15.9°
Drops below altitude 10° 17:53:15 10° 91° (E) 3,518 - -16.1°
Sets 17:55:35 0° 90° (E) 4,217 - -16.6°
